Hourly Weather Pudyshevo

Today, 12 May, Wednesday

Time Temperature Precipitation Wind Pressure Humidity
00:00 +9°C° 0 mm 2 mps 752 mmHg 87%
01:00 +10°C° 0 mm 1 mps 752 mmHg 90%
02:00 +10°C° 0 mm 1 mps 752 mmHg 92%
03:00 +10°C° 0 mm 1 mps 752 mmHg 92%
04:00 +11°C° 0 mm 1 mps 752 mmHg 91%
05:00 +11°C° 0 mm 1 mps 752 mmHg 91%
06:00 +14°C° 0 mm 2 mps 752 mmHg 82%
07:00 +16°C° 0 mm 2 mps 752 mmHg 74%
08:00 +18°C° 0 mm 2 mps 752 mmHg 66%
09:00 +19°C° 0 mm 2 mps 752 mmHg 60%
10:00 +21°C° 0 mm 2 mps 752 mmHg 54%
11:00 +22°C° 0 mm 3 mps 752 mmHg 48%
12:00 +24°C° 0 mm 3 mps 751 mmHg 47%
13:00 +23°C° 0 mm 4 mps 750 mmHg 46%
14:00 +25°C° 0 mm 4 mps 750 mmHg 45%
15:00 +23°C° 0.2 mm 4 mps 749 mmHg 51%
16:00 +22°C° 0.2 mm 4 mps 749 mmHg 57%
17:00 +21°C° 0.2 mm 5 mps 748 mmHg 64%
18:00 +20°C° 0.8 mm 5 mps 748 mmHg 71%
19:00 +17°C° 0.8 mm 5 mps 747 mmHg 78%
20:00 +16°C° 0.8 mm 5 mps 747 mmHg 85%
21:00 +15°C° 0.7 mm 4 mps 747 mmHg 87%
22:00 +14°C° 0.7 mm 4 mps 747 mmHg 90%
23:00 +14°C° 0.7 mm 4 mps 747 mmHg 92%

Tomorrow, 13 May, Thursday

Time Temperature Precipitation Wind Pressure Humidity
00:00 +13°C° 0.2 mm 4 mps 747 mmHg 93%
01:00 +12°C° 0.2 mm 4 mps 747 mmHg 94%
02:00 +12°C° 0.2 mm 4 mps 747 mmHg 94%
03:00 +11°C° 0 mm 3 mps 747 mmHg 95%
04:00 +10°C° 0 mm 3 mps 747 mmHg 95%
05:00 +9°C° 0 mm 2 mps 747 mmHg 96%
06:00 +10°C° 0 mm 3 mps 747 mmHg 88%
07:00 +11°C° 0 mm 3 mps 747 mmHg 80%
08:00 +12°C° 0 mm 3 mps 747 mmHg 72%
09:00 +14°C° 0 mm 3 mps 747 mmHg 65%
10:00 +15°C° 0 mm 4 mps 747 mmHg 57%
11:00 +18°C° 0 mm 4 mps 746 mmHg 50%
12:00 +18°C° 0 mm 4 mps 746 mmHg 51%
13:00 +18°C° 0 mm 4 mps 745 mmHg 52%
14:00 +18°C° 0 mm 3 mps 745 mmHg 53%
15:00 +18°C° 0.1 mm 3 mps 744 mmHg 59%
16:00 +17°C° 0.1 mm 2 mps 744 mmHg 64%
17:00 +17°C° 0.1 mm 2 mps 743 mmHg 69%
18:00 +15°C° 0.3 mm 2 mps 743 mmHg 77%
19:00 +14°C° 0.3 mm 2 mps 742 mmHg 84%
20:00 +12°C° 0.3 mm 2 mps 742 mmHg 92%
21:00 +12°C° 0.7 mm 2 mps 742 mmHg 93%
22:00 +10°C° 0.7 mm 3 mps 742 mmHg 94%
23:00 +9°C° 0.7 mm 3 mps 742 mmHg 96%

Day after tomorrow, 14 May, Friday

Time Temperature Precipitation Wind Pressure Humidity
00:00 +9°C° 1.3 mm 3 mps 742 mmHg 96%
01:00 +9°C° 1.3 mm 3 mps 743 mmHg 96%
02:00 +9°C° 1.3 mm 3 mps 743 mmHg 96%
03:00 +8°C° 0.1 mm 3 mps 743 mmHg 95%
04:00 +8°C° 0.1 mm 3 mps 744 mmHg 95%
05:00 +8°C° 0.1 mm 2 mps 744 mmHg 95%
06:00 +9°C° 0 mm 3 mps 744 mmHg 89%
07:00 +11°C° 0 mm 3 mps 744 mmHg 82%
08:00 +12°C° 0 mm 3 mps 745 mmHg 75%
09:00 +13°C° 0 mm 3 mps 745 mmHg 67%
10:00 +16°C° 0 mm 3 mps 745 mmHg 60%
11:00 +17°C° 0 mm 3 mps 745 mmHg 52%
12:00 +18°C° 0 mm 3 mps 745 mmHg 51%
13:00 +18°C° 0 mm 3 mps 744 mmHg 51%
14:00 +19°C° 0 mm 3 mps 744 mmHg 50%
15:00 +19°C° 0 mm 3 mps 744 mmHg 54%
16:00 +19°C° 0 mm 3 mps 744 mmHg 57%
17:00 +19°C° 0 mm 2 mps 743 mmHg 61%
18:00 +17°C° 0 mm 2 mps 743 mmHg 69%
19:00 +15°C° 0 mm 2 mps 742 mmHg 78%
20:00 +14°C° 0 mm 2 mps 742 mmHg 86%
21:00 +13°C° 0 mm 2 mps 742 mmHg 89%
22:00 +13°C° 0 mm 2 mps 741 mmHg 93%
23:00 +13°C° 0 mm 2 mps 741 mmHg 96%

15 May, Saturday

Time Temperature Precipitation Wind Pressure Humidity
00:00 +13°C° 0.1 mm 2 mps 741 mmHg 96%
01:00 +13°C° 0.1 mm 2 mps 741 mmHg 97%
02:00 +13°C° 0.1 mm 2 mps 740 mmHg 98%
03:00 +13°C° 0.1 mm 2 mps 740 mmHg 98%
04:00 +13°C° 0.1 mm 2 mps 740 mmHg 98%
05:00 +13°C° 0.1 mm 2 mps 740 mmHg 98%
06:00 +15°C° 0.1 mm 2 mps 740 mmHg 94%
07:00 +16°C° 0.1 mm 3 mps 739 mmHg 90%
08:00 +17°C° 0.1 mm 3 mps 739 mmHg 86%
09:00 +19°C° 0 mm 3 mps 739 mmHg 79%
10:00 +20°C° 0 mm 3 mps 739 mmHg 71%
11:00 +22°C° 0 mm 3 mps 739 mmHg 64%
12:00 +21°C° 1.3 mm 3 mps 739 mmHg 68%
13:00 +21°C° 1.3 mm 3 mps 738 mmHg 72%
14:00 +21°C° 1.3 mm 3 mps 738 mmHg 76%
15:00 +20°C° 0.8 mm 3 mps 738 mmHg 79%
16:00 +19°C° 0.8 mm 2 mps 738 mmHg 82%
17:00 +19°C° 0.8 mm 1 mps 737 mmHg 85%
18:00 +18°C° 0.3 mm 1 mps 737 mmHg 87%
19:00 +16°C° 0.3 mm 1 mps 737 mmHg 89%
20:00 +15°C° 0.3 mm 2 mps 737 mmHg 91%
21:00 +15°C° 0.1 mm 2 mps 737 mmHg 92%
22:00 +14°C° 0.1 mm 2 mps 737 mmHg 94%
23:00 +14°C° 0.1 mm 2 mps 737 mmHg 95%

16 May, Sunday

Time Temperature Precipitation Wind Pressure Humidity
00:00 +14°C° 0 mm 2 mps 738 mmHg 94%
01:00 +13°C° 0 mm 2 mps 738 mmHg 94%
02:00 +13°C° 0 mm 2 mps 738 mmHg 94%
03:00 +12°C° 0 mm 3 mps 739 mmHg 95%
04:00 +12°C° 0 mm 3 mps 739 mmHg 95%
05:00 +12°C° 0 mm 3 mps 740 mmHg 95%
06:00 +13°C° 0 mm 3 mps 740 mmHg 91%
07:00 +13°C° 0 mm 4 mps 740 mmHg 88%
08:00 +13°C° 0 mm 4 mps 741 mmHg 84%
09:00 +13°C° 0 mm 4 mps 741 mmHg 83%
10:00 +13°C° 0 mm 4 mps 742 mmHg 81%
11:00 +13°C° 0 mm 4 mps 743 mmHg 79%
12:00 +14°C° 0 mm 3 mps 743 mmHg 79%
13:00 +14°C° 0 mm 3 mps 743 mmHg 78%
14:00 +14°C° 0 mm 3 mps 744 mmHg 78%
15:00 +16°C° 0 mm 3 mps 744 mmHg 76%
16:00 +16°C° 0 mm 3 mps 744 mmHg 74%
17:00 +17°C° 0 mm 2 mps 744 mmHg 72%
18:00 +15°C° 0 mm 2 mps 744 mmHg 79%
19:00 +14°C° 0 mm 2 mps 745 mmHg 85%
20:00 +12°C° 0 mm 1 mps 745 mmHg 92%
21:00 +12°C° 0 mm 1 mps 745 mmHg 92%
22:00 +11°C° 0 mm 1 mps 746 mmHg 92%
23:00 +10°C° 0 mm 0 mps 746 mmHg 92%

17 May, Monday

Time Temperature Precipitation Wind Pressure Humidity
00:00 +10°C° 0 mm 0 mps 746 mmHg 92%
01:00 +9°C° 0 mm 0 mps 746 mmHg 92%
02:00 +9°C° 0 mm 0 mps 746 mmHg 92%
03:00 +10°C° 0 mm 1 mps 746 mmHg 91%
04:00 +11°C° 0 mm 1 mps 747 mmHg 90%
05:00 +11°C° 0 mm 1 mps 747 mmHg 90%
06:00 +13°C° 0 mm 1 mps 747 mmHg 82%
07:00 +15°C° 0 mm 2 mps 747 mmHg 74%
08:00 +17°C° 0 mm 2 mps 747 mmHg 67%
09:00 +18°C° 0 mm 3 mps 747 mmHg 61%
10:00 +20°C° 0 mm 3 mps 746 mmHg 56%
11:00 +21°C° 0 mm 3 mps 746 mmHg 50%
12:00 +22°C° 0 mm 4 mps 746 mmHg 49%
13:00 +23°C° 0 mm 4 mps 746 mmHg 47%
14:00 +23°C° 0 mm 4 mps 745 mmHg 46%
15:00 +23°C° 0 mm 4 mps 745 mmHg 50%
16:00 +22°C° 0 mm 4 mps 745 mmHg 54%
17:00 +22°C° 0 mm 4 mps 745 mmHg 58%
18:00 +21°C° 0 mm 4 mps 745 mmHg 64%
19:00 +19°C° 0 mm 4 mps 744 mmHg 70%
20:00 +18°C° 0 mm 4 mps 744 mmHg 77%
21:00 +17°C° 0 mm 3 mps 744 mmHg 81%
22:00 +16°C° 0 mm 3 mps 744 mmHg 86%
23:00 +16°C° 0 mm 3 mps 744 mmHg 91%
Show more

We Need Your Consent

Meteoprog and our Service Providers may store and access personal data such as cookies, device identifiers or other similar technologies on your device and process such data to personalise content and ads, as well as provide social media features and to analyse the traffic.

  • Store and/or access information on your device

    Cookies, device identifiers or other information can be stored or accessed on your device for the purposes indicated above.

  • Personalised ads and content, ad and content measurement, audience insights, and products development

    Ads and content can be personalised based on a profile. More data can be added to better personalise ads and content. Ad and content performance can be measured. Insights about the audience who saw the ads and content can be derived. Such data can be used to develop or improve user’s experience, systems and software.

By clicking ‘I Agree’ you will allow the use of indicated cookies, device identifiers, web beacons or other similar technologies. Your settings can be changed in the browser on your device.

For certain purposes, legitimate interests may be relied on, rather than consent. You can read more about this in our Privacy and Cookie Policy.